User: anonymous   Login
Location: Caltech
(34.1382°N, 118.1253°W)
Time: 18:10:44
(UTC-08:00)
Language:

Cosmos 1937 Rocket - Orbit

View from above orbital plane
View from above orbital plane
View from above satellite
View from above satellite

Ground track
Ground track

The orbit data is extracted from the following two-line orbital elements,

1 19039U 88029B   17018.15916701 -.00000045  00000-0 -62039-5 0  9992
2 19039  74.0451 215.6963 0022778  65.1145  76.6835 14.38346054509282
Epoch (UTC): 18 January 2017 03:49:12
Eccentricity: 0.0022778
inclination: 74.0451°
perigee height: 748 km
apogee height: 780 km
right ascension of ascending node: 215.6963°
argument of perigee: 65.1145°
revolutions per day: 14.38346054
mean anomaly at epoch: 76.6835°
orbit number at epoch: 50928

The dashed part of the orbit path shows where the satellite is in the earth's shadow,  

DLR